THORAD AGENA D DEB

Satellite information

Favourite Embed

Satellite Type and Status

DEBRISIN ORBIT

Key statistics

Satellite THORAD AGENA D DEB at a glance.

Uptime

20289

Days in orbit

Revolutions

≈ 14.1

Per day

Orbit

SSO

Sun Synchronous Orbit

Inclination

99.5

Latest

Satellite identification and parameters

Extended collection of information and parameters for THORAD AGENA D DEB.

Object identification

Identified? True

Debris? True

Object name: THORAD AGENA D DEB

International designator: 1970-025SS

Object number (NORAD): 42536

Object ID (CCSDS): 42536

Country: UNITED STATES OF AMERICA (US)

Current information (Y/N): Y

RCS size: SMALL

Orbital parameters

Period: 102.087 minutes

Inclination: 99.4932 deg

SMA: 7235.603 km

Apoapsis: 902.644 km

Periapsis: 812.293 km

RAAN: 225.9951 deg

Eccentricy: 0.00624347

Argument of periapsis: 273.7882 deg

Mean anomaly: 85.6149 deg

Mean motion: 14.10556984 rev/day

Mean motion (dot): 0.00007341 rev/day2

B* drag term: 0.0040683665 1/REarth

Two-line elements (TLE)

Creation date: Oct. 25, 2025, 3:11 a.m.

Reference frame: TEME

Reference center: EARTH

Epoch: Oct. 24, 2025, 5:56 p.m. UTC

TLE line 0: 0 THORAD AGENA D DEB

TLE line 1: 1 42536U 70025SS 25297.74733445 .00007341 00000-0 40684-2 0 9995

TLE line 2: 2 42536 99.4932 225.9951 0062435 273.7882 85.6149 14.10556984607287

Live tracking on map

Real-time ground track for satellite THORAD AGENA D DEB.

In-orbit conjunctions

A list of the most updated potential collisions computed for object THORAD AGENA D DEB.

Target Orbit TCA Probability of collision Miss distance Type
METEOR 1-20 LEO 2025-01-10 09:05:10 0.0001480421 558.0 (m) PAYLOAD
FENGYUN 1C DEB SSO 2024-12-13 10:42:52 0.0001358942 224.0 (m) DEBRIS

Associated space launch

Meteorological research and development satellite

THORAD AGENA D DEB was lifted into orbit during the mission ‘Thorad SLV-2G Agena D | Nimbus 4’, on board a Thorad SLV-2G Agena D space rocket.

The launch took place on April 8, 1970, 8:17 a.m. from Space Launch Complex 2E.

For more information about the launch, click the button.

Launch to space Thorad SLV-2G Agena D | Nimbus 4
Thorad SLV-2G Agena D | Nimbus 4

Agency: N/A

Status: Launch Successful

Launch date: April 8, 1970, 8:17 a.m. UTC

Rocket: Thorad SLV-2G Agena D

Launch pad: Space Launch Complex 2E

Location: Vandenberg SFB, CA, USA

...

Latest news about this satellite

There are no fresh news available about this satellite. Check back as we update our databases every day.


Newsletter sign-up

Weekly statistics, charts and insights to help you stay on top of the space industry.